N960JB LFQQ-LFLB

Flight info

Callsign N960JB
Flight time 1h 25m
Altitude 23000
Route CMB B3 VATRI T11 SOMDA A6 DJL DCT LIRKO Y55 SALEV
Aircraft TBM8/L-SBDGRWY/SB1

Departure

Time 2026-05-08 16:45
Airport Lille Airport (LFQQ)

Arrival

Time 2026-05-08 18:10
Airport Chambéry Aix les Bains airport (LFLB)
Time Latitude Longitude Altitude Speed Heading
2026-05-08 16:30 50.57290 3.09475 146 ft 0 kts 169°
2026-05-08 16:41 50.57299 3.09423 146 ft 0 kts 210°
2026-05-08 16:42 50.57296 3.09311 146 ft 10 kts 308°
2026-05-08 16:42 50.57331 3.09267 146 ft 0 kts 310°
2026-05-08 16:44 50.57332 3.09266 146 ft 2 kts 310°
2026-05-08 16:44 50.57359 3.09130 148 ft 12 kts 262°
2026-05-08 16:44 50.57299 3.09083 149 ft 21 kts 196°
2026-05-08 16:44 50.56973 3.08946 146 ft 75 kts 196°
2026-05-08 16:45 50.56361 3.08668 241 ft 105 kts 190°
2026-05-08 16:45 50.55635 3.08359 566 ft 114 kts 190°
2026-05-08 16:45 50.54827 3.08042 920 ft 126 kts 192°
2026-05-08 16:45 50.53922 3.07672 1236 ft 141 kts 184°
2026-05-08 16:46 50.52966 3.07805 1758 ft 135 kts 168°
2026-05-08 16:46 50.52042 3.07921 2285 ft 133 kts 174°
2026-05-08 16:46 50.51111 3.07961 2755 ft 134 kts 176°
2026-05-08 16:46 50.50183 3.08006 3233 ft 134 kts 175°
2026-05-08 16:47 50.49251 3.08071 3697 ft 134 kts 175°
2026-05-08 16:47 50.48320 3.08122 4167 ft 134 kts 175°
2026-05-08 16:47 50.47394 3.08285 4632 ft 134 kts 167°
2026-05-08 16:47 50.46470 3.08565 5074 ft 136 kts 167°
2026-05-08 16:48 50.45541 3.08846 5520 ft 137 kts 168°
2026-05-08 16:48 50.44601 3.09113 5968 ft 138 kts 169°
2026-05-08 16:48 50.43653 3.09379 6414 ft 139 kts 169°
2026-05-08 16:48 50.42700 3.09647 6831 ft 140 kts 169°
2026-05-08 16:49 50.41741 3.09913 7252 ft 140 kts 169°
2026-05-08 16:49 50.40775 3.10182 7670 ft 141 kts 169°
2026-05-08 16:49 50.39805 3.10452 8090 ft 142 kts 170°
2026-05-08 16:49 50.38829 3.10721 8510 ft 143 kts 170°
2026-05-08 16:50 50.37847 3.10994 8933 ft 144 kts 170°
2026-05-08 16:50 50.36864 3.11265 9372 ft 144 kts 170°
2026-05-08 16:50 50.35878 3.11538 9801 ft 144 kts 170°
2026-05-08 16:50 50.34886 3.11812 10193 ft 145 kts 170°
2026-05-08 16:51 50.33890 3.12089 10567 ft 146 kts 171°
2026-05-08 16:51 50.32887 3.12359 10939 ft 146 kts 170°
2026-05-08 16:51 50.31896 3.12644 11324 ft 147 kts 170°
2026-05-08 16:51 50.30886 3.12925 11716 ft 148 kts 170°
2026-05-08 16:52 50.29868 3.13205 12108 ft 149 kts 170°
2026-05-08 16:52 50.29178 3.13394 12374 ft 149 kts 171°
2026-05-08 16:52 50.28150 3.13675 12763 ft 150 kts 171°
2026-05-08 16:52 50.27117 3.13957 13153 ft 151 kts 171°
2026-05-08 16:53 50.25031 3.14533 13924 ft 153 kts 171°
2026-05-08 16:53 50.23978 3.14822 14264 ft 154 kts 171°
2026-05-08 16:53 50.23495 3.14956 14421 ft 155 kts 171°
2026-05-08 16:54 50.22432 3.15253 14766 ft 156 kts 170°
2026-05-08 16:54 50.21374 3.15648 15107 ft 157 kts 166°
2026-05-08 16:54 50.20318 3.16102 15448 ft 158 kts 166°
2026-05-08 16:54 50.19255 3.16554 15786 ft 159 kts 166°
2026-05-08 16:55 50.18183 3.17001 16124 ft 160 kts 166°
2026-05-08 16:55 50.17101 3.17445 16459 ft 161 kts 167°
2026-05-08 16:55 50.16013 3.17885 16798 ft 162 kts 167°
2026-05-08 16:55 50.14915 3.18330 17136 ft 163 kts 167°
2026-05-08 16:56 50.13812 3.18772 17472 ft 164 kts 167°
2026-05-08 16:56 50.12701 3.19219 17809 ft 165 kts 167°
2026-05-08 16:56 50.11598 3.19661 18142 ft 166 kts 168°
2026-05-08 16:56 50.10476 3.20106 18458 ft 167 kts 168°
2026-05-08 16:57 50.09345 3.20569 18735 ft 168 kts 168°
2026-05-08 16:57 50.08207 3.21028 19024 ft 169 kts 168°
2026-05-08 16:57 50.07078 3.21481 19311 ft 170 kts 168°
2026-05-08 16:57 50.05929 3.21941 19601 ft 171 kts 168°
2026-05-08 16:58 50.04773 3.22404 19896 ft 172 kts 168°
2026-05-08 16:58 50.03612 3.22865 20189 ft 173 kts 168°
2026-05-08 16:58 50.02445 3.23329 20484 ft 174 kts 168°
2026-05-08 16:58 50.01271 3.23799 20770 ft 175 kts 168°
2026-05-08 16:59 50.00131 3.24457 21051 ft 177 kts 149°
2026-05-08 16:59 49.99515 3.25333 21239 ft 179 kts 127°
2026-05-08 16:59 49.98816 3.26945 21517 ft 180 kts 126°
2026-05-08 16:59 49.97818 3.29008 21896 ft 181 kts 129°
2026-05-08 17:00 49.97305 3.30035 22084 ft 182 kts 129°
2026-05-08 17:00 49.96529 3.31596 22360 ft 183 kts 128°
2026-05-08 17:00 49.95756 3.33164 22648 ft 183 kts 128°
2026-05-08 17:00 49.94985 3.34745 22921 ft 184 kts 128°
2026-05-08 17:01 49.94197 3.36367 23030 ft 195 kts 128°
2026-05-08 17:01 49.93616 3.37551 23047 ft 205 kts 128°
2026-05-08 17:01 49.92718 3.39373 23059 ft 219 kts 128°
2026-05-08 17:01 49.91769 3.41302 23064 ft 232 kts 128°
2026-05-08 17:02 49.90765 3.43344 23064 ft 243 kts 129°
2026-05-08 17:02 49.89550 3.45232 23069 ft 252 kts 142°
2026-05-08 17:02 49.88112 3.46867 23065 ft 261 kts 146°
2026-05-08 17:02 49.86581 3.48446 23059 ft 268 kts 148°
2026-05-08 17:03 49.84998 3.50031 23053 ft 273 kts 148°
2026-05-08 17:03 49.83388 3.51641 23052 ft 278 kts 148°
2026-05-08 17:03 49.81754 3.53283 23049 ft 281 kts 147°
2026-05-08 17:03 49.80105 3.54950 23048 ft 284 kts 147°
2026-05-08 17:04 49.78448 3.56634 23044 ft 286 kts 147°
2026-05-08 17:04 49.76778 3.58335 23045 ft 288 kts 147°
2026-05-08 17:04 49.75102 3.60043 23045 ft 290 kts 147°
2026-05-08 17:04 49.73416 3.61764 23037 ft 291 kts 148°
2026-05-08 17:05 49.71722 3.63490 23041 ft 292 kts 148°
2026-05-08 17:05 49.70029 3.65213 23040 ft 292 kts 148°
2026-05-08 17:05 49.68327 3.66944 23043 ft 293 kts 148°
2026-05-08 17:05 49.66628 3.68671 23040 ft 293 kts 148°
2026-05-08 17:06 49.64924 3.70402 23042 ft 293 kts 148°
2026-05-08 17:06 49.63223 3.72129 23040 ft 293 kts 148°
2026-05-08 17:06 49.61519 3.73860 23039 ft 293 kts 148°
2026-05-08 17:06 49.59817 3.75584 23039 ft 293 kts 148°
2026-05-08 17:07 49.58112 3.77311 23036 ft 293 kts 148°
2026-05-08 17:07 49.56405 3.79037 23038 ft 293 kts 148°
2026-05-08 17:07 49.54701 3.80760 23036 ft 293 kts 148°
2026-05-08 17:07 49.52996 3.82480 23036 ft 293 kts 148°
2026-05-08 17:08 49.51315 3.84176 23033 ft 293 kts 148°
2026-05-08 17:08 49.49587 3.85919 23035 ft 293 kts 148°
2026-05-08 17:08 49.47905 3.87613 23036 ft 293 kts 148°
2026-05-08 17:08 49.46199 3.89329 23037 ft 293 kts 148°
2026-05-08 17:09 49.44472 3.91067 23038 ft 294 kts 148°
2026-05-08 17:09 49.42780 3.92765 23036 ft 294 kts 148°
2026-05-08 17:09 49.41068 3.94485 23036 ft 294 kts 148°
2026-05-08 17:09 49.39349 3.96210 23036 ft 295 kts 148°
2026-05-08 17:10 49.37635 3.97928 23033 ft 295 kts 149°
2026-05-08 17:10 49.35914 3.99649 23031 ft 295 kts 149°
2026-05-08 17:10 49.34196 4.01370 23040 ft 295 kts 149°
2026-05-08 17:10 49.32467 4.03066 23038 ft 295 kts 152°
2026-05-08 17:11 49.30572 4.04206 23047 ft 293 kts 169°
2026-05-08 17:11 49.28559 4.04598 23040 ft 292 kts 179°
2026-05-08 17:11 49.26528 4.04691 23042 ft 291 kts 181°
2026-05-08 17:11 49.24499 4.04708 23035 ft 291 kts 182°
2026-05-08 17:12 49.22470 4.04710 23039 ft 292 kts 183°
2026-05-08 17:12 49.20437 4.04714 23018 ft 292 kts 183°
2026-05-08 17:12 49.18401 4.04730 23028 ft 293 kts 183°
2026-05-08 17:12 49.16364 4.04758 23016 ft 293 kts 183°
2026-05-08 17:13 49.14328 4.04792 23017 ft 293 kts 182°
2026-05-08 17:13 49.12288 4.04833 23020 ft 293 kts 182°
2026-05-08 17:13 49.10245 4.04884 23025 ft 294 kts 182°
2026-05-08 17:13 49.08200 4.04938 23022 ft 294 kts 182°
2026-05-08 17:14 49.06156 4.04995 23017 ft 294 kts 182°
2026-05-08 17:14 49.04111 4.05051 23018 ft 294 kts 182°
2026-05-08 17:14 49.02065 4.05107 23020 ft 294 kts 182°
2026-05-08 17:14 49.00020 4.05164 23021 ft 294 kts 183°
2026-05-08 17:15 48.97971 4.05217 23029 ft 295 kts 184°
2026-05-08 17:15 48.95914 4.05272 23032 ft 296 kts 184°
2026-05-08 17:15 48.93853 4.05325 23035 ft 296 kts 184°
2026-05-08 17:15 48.91787 4.05380 23037 ft 297 kts 184°
2026-05-08 17:16 48.89725 4.05435 23038 ft 297 kts 184°
2026-05-08 17:16 48.87657 4.05489 23040 ft 297 kts 184°
2026-05-08 17:16 48.85589 4.05544 23041 ft 297 kts 184°
2026-05-08 17:16 48.83522 4.05598 23041 ft 297 kts 184°
2026-05-08 17:17 48.81449 4.05655 23042 ft 298 kts 183°
2026-05-08 17:17 48.79373 4.05892 23044 ft 300 kts 176°
2026-05-08 17:17 48.77313 4.06516 23041 ft 303 kts 169°
2026-05-08 17:17 48.75283 4.07361 23046 ft 303 kts 169°
2026-05-08 17:18 48.73244 4.08205 23046 ft 303 kts 169°
2026-05-08 17:18 48.71235 4.09036 23044 ft 303 kts 169°
2026-05-08 17:18 48.69197 4.09874 23042 ft 303 kts 169°
2026-05-08 17:18 48.67159 4.10713 23041 ft 304 kts 169°
2026-05-08 17:19 48.65119 4.11552 23041 ft 304 kts 169°
2026-05-08 17:19 48.63081 4.12389 23043 ft 304 kts 169°
2026-05-08 17:19 48.61043 4.13224 23045 ft 304 kts 169°
2026-05-08 17:19 48.59006 4.14057 23042 ft 304 kts 169°
2026-05-08 17:20 48.56961 4.14893 23019 ft 304 kts 170°
2026-05-08 17:20 48.54910 4.15729 23019 ft 306 kts 170°
2026-05-08 17:20 48.52853 4.16563 23020 ft 307 kts 171°
2026-05-08 17:20 48.51817 4.16984 23024 ft 308 kts 170°
2026-05-08 17:21 48.49745 4.17829 23023 ft 309 kts 170°
2026-05-08 17:21 48.47664 4.18678 23017 ft 310 kts 170°
2026-05-08 17:21 48.45582 4.19528 23019 ft 311 kts 170°
2026-05-08 17:21 48.43498 4.20378 23018 ft 311 kts 170°
2026-05-08 17:22 48.41405 4.21227 23021 ft 311 kts 170°
2026-05-08 17:22 48.39314 4.22076 23021 ft 312 kts 170°
2026-05-08 17:22 48.37217 4.22926 23022 ft 312 kts 170°
2026-05-08 17:22 48.35124 4.23784 22999 ft 313 kts 170°
2026-05-08 17:23 48.33048 4.24842 23004 ft 317 kts 163°
2026-05-08 17:23 48.31054 4.26311 23005 ft 322 kts 155°
2026-05-08 17:23 48.29126 4.28034 23018 ft 323 kts 154°
2026-05-08 17:23 48.27180 4.29697 23023 ft 321 kts 156°
2026-05-08 17:24 48.25218 4.31267 23023 ft 319 kts 157°
2026-05-08 17:24 48.23256 4.32810 23018 ft 318 kts 157°
2026-05-08 17:24 48.21301 4.34340 23013 ft 317 kts 157°
2026-05-08 17:24 48.19353 4.35872 23013 ft 316 kts 157°
2026-05-08 17:25 48.17408 4.37408 23014 ft 316 kts 157°
2026-05-08 17:25 48.15470 4.38942 23017 ft 315 kts 157°
2026-05-08 17:25 48.13542 4.40471 22995 ft 315 kts 157°
2026-05-08 17:25 48.11603 4.42007 23000 ft 316 kts 157°
2026-05-08 17:26 48.09664 4.43572 23003 ft 317 kts 156°
2026-05-08 17:26 48.07726 4.45159 23006 ft 318 kts 156°
2026-05-08 17:26 48.05786 4.46751 23007 ft 319 kts 156°
2026-05-08 17:26 48.03839 4.48341 23009 ft 319 kts 156°
2026-05-08 17:27 48.01892 4.49926 23006 ft 319 kts 157°
2026-05-08 17:27 47.99938 4.51514 23008 ft 319 kts 157°
2026-05-08 17:27 47.97985 4.53096 23010 ft 320 kts 157°
2026-05-08 17:27 47.96028 4.54680 23011 ft 320 kts 157°
2026-05-08 17:28 47.94072 4.56263 23009 ft 320 kts 157°
2026-05-08 17:28 47.92113 4.57845 22981 ft 320 kts 157°
2026-05-08 17:28 47.90178 4.59408 22990 ft 321 kts 156°
2026-05-08 17:28 47.88212 4.60992 23003 ft 321 kts 156°
2026-05-08 17:29 47.86246 4.62576 23008 ft 322 kts 156°
2026-05-08 17:29 47.84270 4.64167 23010 ft 323 kts 156°
2026-05-08 17:29 47.82296 4.65754 23010 ft 322 kts 156°
2026-05-08 17:29 47.80328 4.67344 23009 ft 322 kts 156°
2026-05-08 17:30 47.78363 4.68925 23008 ft 321 kts 156°
2026-05-08 17:30 47.76399 4.70502 23004 ft 320 kts 156°
2026-05-08 17:30 47.74437 4.72073 23009 ft 320 kts 156°
2026-05-08 17:30 47.72479 4.73640 23011 ft 320 kts 156°
2026-05-08 17:31 47.70519 4.75206 23009 ft 319 kts 157°
2026-05-08 17:31 47.68563 4.76765 22998 ft 319 kts 156°
2026-05-08 17:31 47.66602 4.78329 23000 ft 319 kts 156°
2026-05-08 17:31 47.64646 4.79889 23006 ft 320 kts 156°
2026-05-08 17:32 47.62687 4.81453 23003 ft 320 kts 156°
2026-05-08 17:32 47.60725 4.83016 23002 ft 320 kts 156°
2026-05-08 17:32 47.58767 4.84575 23005 ft 320 kts 156°
2026-05-08 17:32 47.57466 4.85610 23019 ft 320 kts 156°
2026-05-08 17:33 47.55427 4.87231 23010 ft 320 kts 156°
2026-05-08 17:33 47.53462 4.88791 23007 ft 321 kts 156°
2026-05-08 17:33 47.51495 4.90352 23005 ft 321 kts 156°
2026-05-08 17:33 47.49528 4.91911 22999 ft 321 kts 156°
2026-05-08 17:34 47.47561 4.93468 22989 ft 320 kts 156°
2026-05-08 17:34 47.45596 4.95025 22992 ft 320 kts 156°
2026-05-08 17:34 47.43658 4.96557 22995 ft 320 kts 156°
2026-05-08 17:34 47.41693 4.98109 22998 ft 320 kts 156°
2026-05-08 17:35 47.39729 4.99658 22995 ft 320 kts 156°
2026-05-08 17:35 47.37762 5.01212 22989 ft 320 kts 156°
2026-05-08 17:35 47.35803 5.02758 22986 ft 319 kts 156°
2026-05-08 17:35 47.33852 5.04295 22986 ft 318 kts 156°
2026-05-08 17:36 47.31899 5.05833 22991 ft 318 kts 156°
2026-05-08 17:36 47.29951 5.07362 22995 ft 317 kts 156°
2026-05-08 17:36 47.28005 5.08904 22991 ft 318 kts 155°
2026-05-08 17:36 47.26104 5.10571 22981 ft 319 kts 151°
2026-05-08 17:37 47.24272 5.12429 22982 ft 320 kts 147°
2026-05-08 17:37 47.22482 5.14357 22988 ft 319 kts 147°
2026-05-08 17:37 47.20678 5.16261 22990 ft 319 kts 148°
2026-05-08 17:37 47.18872 5.18142 22990 ft 318 kts 148°
2026-05-08 17:38 47.18260 5.18777 22990 ft 318 kts 148°
2026-05-08 17:38 47.16527 5.20570 22992 ft 318 kts 148°
2026-05-08 17:39 47.14717 5.22443 22993 ft 318 kts 148°
2026-05-08 17:39 47.12907 5.24314 22993 ft 318 kts 148°
2026-05-08 17:39 47.11099 5.26183 22994 ft 318 kts 148°
2026-05-08 17:39 47.09291 5.28050 22992 ft 318 kts 148°
2026-05-08 17:40 47.07481 5.29918 22991 ft 318 kts 148°
2026-05-08 17:40 47.05669 5.31787 22991 ft 318 kts 148°
2026-05-08 17:40 47.03862 5.33649 22984 ft 318 kts 148°
2026-05-08 17:40 47.02056 5.35512 22989 ft 317 kts 148°
2026-05-08 17:41 47.00254 5.37369 22989 ft 317 kts 148°
2026-05-08 17:41 46.98450 5.39222 22989 ft 316 kts 148°
2026-05-08 17:41 46.96652 5.41068 22993 ft 316 kts 148°
2026-05-08 17:41 46.94851 5.42916 22993 ft 316 kts 148°
2026-05-08 17:42 46.93076 5.44734 22993 ft 316 kts 148°
2026-05-08 17:42 46.91278 5.46578 22991 ft 315 kts 148°
2026-05-08 17:42 46.89483 5.48416 22992 ft 315 kts 148°
2026-05-08 17:42 46.87686 5.50253 22993 ft 315 kts 148°
2026-05-08 17:43 46.85888 5.52088 22991 ft 315 kts 148°
2026-05-08 17:43 46.84677 5.53325 22992 ft 315 kts 148°
2026-05-08 17:43 46.82297 5.55752 22986 ft 315 kts 148°
2026-05-08 17:43 46.80503 5.57583 22993 ft 315 kts 148°
2026-05-08 17:44 46.78705 5.59415 22995 ft 315 kts 148°
2026-05-08 17:44 46.77491 5.60650 22997 ft 315 kts 148°
2026-05-08 17:44 46.75692 5.62480 23000 ft 315 kts 148°
2026-05-08 17:44 46.73891 5.64309 23001 ft 316 kts 148°
2026-05-08 17:45 46.72114 5.66114 23000 ft 316 kts 148°
2026-05-08 17:45 46.70308 5.67947 22997 ft 316 kts 148°
2026-05-08 17:45 46.68508 5.69760 22809 ft 303 kts 149°
2026-05-08 17:45 46.66864 5.71344 22435 ft 268 kts 150°
2026-05-08 17:46 46.65658 5.72526 22101 ft 251 kts 150°
2026-05-08 17:46 46.64269 5.73933 21691 ft 236 kts 149°
2026-05-08 17:46 46.62959 5.75283 21292 ft 225 kts 149°
2026-05-08 17:46 46.61706 5.76581 20905 ft 217 kts 150°
2026-05-08 17:47 46.60490 5.77833 20521 ft 211 kts 150°
2026-05-08 17:47 46.59302 5.79045 20138 ft 206 kts 151°
2026-05-08 17:47 46.58138 5.80230 19767 ft 202 kts 151°
2026-05-08 17:47 46.56949 5.81450 19458 ft 219 kts 150°
2026-05-08 17:48 46.55674 5.82769 19242 ft 230 kts 150°
2026-05-08 17:48 46.54334 5.84112 19022 ft 237 kts 151°
2026-05-08 17:48 46.52955 5.85474 18795 ft 241 kts 151°
2026-05-08 17:48 46.51556 5.86859 18565 ft 244 kts 151°
2026-05-08 17:49 46.50153 5.88257 18334 ft 245 kts 151°
2026-05-08 17:49 46.48764 5.89648 18067 ft 245 kts 151°
2026-05-08 17:49 46.47364 5.91042 17741 ft 241 kts 151°
2026-05-08 17:49 46.45986 5.92413 17417 ft 238 kts 151°
2026-05-08 17:50 46.44635 5.93767 17100 ft 235 kts 150°
2026-05-08 17:50 46.43303 5.95108 16790 ft 232 kts 150°
2026-05-08 17:50 46.41977 5.96440 16484 ft 230 kts 150°
2026-05-08 17:50 46.40677 5.97745 16174 ft 228 kts 150°
2026-05-08 17:51 46.39377 5.99044 15863 ft 226 kts 150°
2026-05-08 17:51 46.38091 6.00331 15561 ft 224 kts 150°
2026-05-08 17:51 46.36807 6.01614 15260 ft 223 kts 150°
2026-05-08 17:51 46.35537 6.02879 14941 ft 221 kts 150°
2026-05-08 17:52 46.34275 6.04139 14644 ft 220 kts 150°
2026-05-08 17:52 46.33017 6.05393 14342 ft 218 kts 150°
2026-05-08 17:52 46.30537 6.07882 13763 ft 216 kts 149°
2026-05-08 17:53 46.29312 6.09113 13444 ft 214 kts 149°
2026-05-08 17:53 46.28090 6.10342 13112 ft 213 kts 149°
2026-05-08 17:53 46.26864 6.11530 12792 ft 211 kts 154°
2026-05-08 17:53 46.25522 6.12296 12494 ft 206 kts 171°
2026-05-08 17:54 46.24112 6.12489 12195 ft 202 kts 185°
2026-05-08 17:54 46.22732 6.12204 11903 ft 200 kts 195°
2026-05-08 17:54 46.21389 6.11690 11595 ft 199 kts 198°
2026-05-08 17:54 46.20060 6.11150 11288 ft 198 kts 198°
2026-05-08 17:55 46.18728 6.10632 10985 ft 198 kts 197°
2026-05-08 17:55 46.17395 6.10126 10691 ft 198 kts 197°
2026-05-08 17:55 46.16085 6.09638 10402 ft 197 kts 197°
2026-05-08 17:55 46.14763 6.09148 10108 ft 196 kts 197°
2026-05-08 17:56 46.13443 6.08663 9808 ft 195 kts 197°
2026-05-08 17:56 46.12126 6.08185 9490 ft 195 kts 197°
2026-05-08 17:56 46.10811 6.07732 9174 ft 194 kts 196°
2026-05-08 17:56 46.09500 6.07269 8859 ft 193 kts 197°
2026-05-08 17:57 46.08198 6.06797 8558 ft 193 kts 197°
2026-05-08 17:57 46.06938 6.06173 8269 ft 191 kts 208°
2026-05-08 17:57 46.05888 6.05038 7994 ft 189 kts 230°
2026-05-08 17:57 46.05199 6.03441 7710 ft 188 kts 245°
2026-05-08 17:58 46.04674 6.01721 7413 ft 188 kts 246°
2026-05-08 17:58 46.04027 6.00093 7099 ft 187 kts 233°
2026-05-08 17:58 46.03078 5.98811 6798 ft 188 kts 217°
2026-05-08 17:58 46.02024 5.97742 6501 ft 177 kts 221°
2026-05-08 17:59 46.01201 5.96569 6181 ft 159 kts 230°
2026-05-08 17:59 46.00480 5.95421 5864 ft 151 kts 229°
2026-05-08 17:59 45.99764 5.94344 5543 ft 148 kts 227°
2026-05-08 17:59 45.99061 5.93298 5451 ft 150 kts 226°
2026-05-08 18:00 45.98293 5.92175 5446 ft 162 kts 227°
2026-05-08 18:00 45.96793 5.89624 5450 ft 170 kts 231°
2026-05-08 18:00 45.96063 5.88351 5443 ft 160 kts 231°
2026-05-08 18:01 45.95358 5.87153 5437 ft 154 kts 231°
2026-05-08 18:01 45.94606 5.86056 5440 ft 151 kts 216°
2026-05-08 18:01 45.93633 5.85537 5439 ft 151 kts 188°
2026-05-08 18:01 45.92618 5.85776 5457 ft 152 kts 163°
2026-05-08 18:02 45.91605 5.86084 5468 ft 144 kts 182°
2026-05-08 18:02 45.90950 5.86048 5470 ft 136 kts 187°
2026-05-08 18:02 45.89733 5.85946 5464 ft 135 kts 182°
2026-05-08 18:02 45.88731 5.85992 5476 ft 152 kts 180°
2026-05-08 18:03 45.87628 5.86055 5478 ft 164 kts 180°
2026-05-08 18:03 45.86465 5.86124 5469 ft 170 kts 180°
2026-05-08 18:03 45.85270 5.86210 5460 ft 172 kts 179°
2026-05-08 18:03 45.84103 5.86332 5454 ft 165 kts 178°
2026-05-08 18:04 45.82975 5.86465 5444 ft 161 kts 179°
2026-05-08 18:04 45.81868 5.86571 5438 ft 158 kts 179°
2026-05-08 18:04 45.80778 5.86660 5432 ft 156 kts 180°
2026-05-08 18:04 45.79733 5.86730 5211 ft 143 kts 181°
2026-05-08 18:05 45.78780 5.86799 4933 ft 132 kts 180°
2026-05-08 18:05 45.77883 5.86887 4668 ft 127 kts 179°
2026-05-08 18:05 45.77019 5.86971 4417 ft 121 kts 180°
2026-05-08 18:05 45.76214 5.87028 4167 ft 111 kts 181°
2026-05-08 18:06 45.75468 5.87075 3955 ft 104 kts 180°
2026-05-08 18:06 45.74765 5.87133 3746 ft 98 kts 179°
2026-05-08 18:06 45.74098 5.87194 3547 ft 94 kts 179°
2026-05-08 18:06 45.73458 5.87244 3369 ft 91 kts 178°
2026-05-08 18:07 45.72836 5.87293 3180 ft 89 kts 179°
2026-05-08 18:07 45.72204 5.87358 3005 ft 97 kts 173°
2026-05-08 18:07 45.71531 5.87443 2826 ft 93 kts 180°
2026-05-08 18:07 45.70911 5.87420 2637 ft 86 kts 180°
2026-05-08 18:08 45.70314 5.87476 2465 ft 89 kts 172°
2026-05-08 18:08 45.69665 5.87592 2303 ft 96 kts 175°
2026-05-08 18:08 45.69042 5.87582 2120 ft 84 kts 184°
2026-05-08 18:08 45.68477 5.87562 1959 ft 79 kts 173°
2026-05-08 18:09 45.67908 5.87683 1811 ft 88 kts 168°
2026-05-08 18:09 45.67280 5.87741 1603 ft 92 kts 180°
2026-05-08 18:09 45.66630 5.87734 1417 ft 94 kts 179°
2026-05-08 18:09 45.65972 5.87817 1224 ft 96 kts 169°
2026-05-08 18:10 45.65324 5.87904 990 ft 92 kts 175°
2026-05-08 18:10 45.64694 5.87950 820 ft 90 kts 176°
2026-05-08 18:10 45.64120 5.87999 773 ft 72 kts 176°
2026-05-08 18:10 45.63834 5.88021 773 ft 21 kts 177°
2026-05-08 18:11 45.63658 5.88057 771 ft 29 kts 167°
2026-05-08 18:11 45.63562 5.88184 772 ft 7 kts 72°
2026-05-08 18:11 45.63577 5.88243 773 ft 2 kts 67°
2026-05-08 18:11 45.63580 5.88248 773 ft 0 kts 29°
2026-05-08 18:12 45.63591 5.88248 773 ft 7 kts 353°
2026-05-08 18:12 45.63609 5.88245 773 ft 1 kts 353°
2026-05-08 18:12 45.63649 5.88241 773 ft 6 kts 356°
2026-05-08 18:12 45.63665 5.88240 773 ft 4 kts 359°
2026-05-08 18:13 45.63755 5.88234 773 ft 10 kts 357°
2026-05-08 18:13 45.63777 5.88260 773 ft 4 kts 86°
2026-05-08 18:13 45.63778 5.88296 773 ft 0 kts 86°